This demonstration page uses our WeatherBlox Daily Observations layout. Learn more.

Left ArrowRight Arrow

Hourly Observations for February 19, 2016

Temp ( °F °C ) Dew Point ( °F °C ) Humidity (%) Winds ( mph kmh ) Pressure ( in mb ) Visibility ( mi km ) Precip ( " mm )
12:51 am 00:51 Clear 54 12.2 28 -2.2 37 37 Calm 29.94 1014 10 16 0.00 0.00
1:51 am 01:51 Clear 53 11.7 27 -2.8 37 37 E 3 6 29.93 1013 10 16 0.00 0.00
2:51 am 02:51 Clear 52 11.1 27 -2.8 38 38 NE 5 7 29.95 1014 10 16 0.00 0.00
3:51 am 03:51 Clear 53 11.7 27 -2.8 37 37 ESE 5 7 29.95 1014 10 16 0.00 0.00
4:51 am 04:51 Clear 52 11.1 29 -1.7 41 41 SE 3 6 29.96 1015 10 16 0.00 0.00
5:51 am 05:51 Clear 51 10.6 29 -1.7 43 43 Calm 29.99 1016 10 16 0.00 0.00
6:51 am 06:51 Partly Cloudy 53 11.7 28 -2.2 38 38 N 5 7 30.01 1016 10 16 0.00 0.00
7:51 am 07:51 Sunny 54 12.2 29 -1.7 38 38 SSW 8 13 30.05 1018 10 16 0.00 0.00
8:51 am 08:51 Sunny 59 15 28 -2.2 31 31 SSE 5 7 30.05 1018 10 16 0.00 0.00
9:51 am 09:51 Sunny 67 19.4 28 -2.2 23 23 Calm 30.03 1017 10 16 0.00 0.00
10:51 am 10:51 Sunny 70 21.1 27 -2.8 20 20 ESE 10 17 30.03 1017 10 16 0.00 0.00
11:51 am 11:51 Sunny 72 22.2 28 -2.2 19 19 VRB 3 6 30.02 1017 10 16 0.00 0.00
12:51 pm 12:51 Sunny 76 24.4 27 -2.8 16 16 Calm 29.97 1015 10 16 0.00 0.00
1:51 pm 13:51 Sunny 75 23.9 27 -2.8 17 17 W 5 7 29.96 1014 10 16 0.00 0.00
2:51 pm 14:51 Sunny 77 25 26 -3.3 15 15 VRB 3 6 29.93 1014 10 16 0.00 0.00
3:51 pm 15:51 Sunny 79 26.1 25 -3.9 14 14 NNE 3 6 29.91 1013 10 16 0.00 0.00
4:51 pm 16:51 Sunny 79 26.1 24 -4.4 13 13 NNW 6 9 29.91 1013 10 16 0.00 0.00
5:51 pm 17:51 Sunny 75 23.9 25 -3.9 15 15 WNW 6 9 29.93 1013 10 16 0.00 0.00
6:51 pm 18:51 Clear 66 18.9 26 -3.3 22 22 NNW 7 11 29.96 1014 10 16 0.00 0.00
7:51 pm 19:51 Clear 63 17.2 27 -2.8 26 26 WNW 6 9 29.98 1015 10 16 0.00 0.00
8:51 pm 20:51 Clear 59 15 26 -3.3 28 28 NNW 7 11 29.99 1016 10 16 0.00 0.00
9:51 pm 21:51 Clear 59 15 26 -3.3 28 28 VRB 5 7 29.99 1016 10 16 0.00 0.00
10:51 pm 22:51 Clear 53 11.7 26 -3.3 35 35 Calm 30.01 1016 10 16 0.00 0.00
11:51 pm 23:51 Clear 52 11.1 26 -3.3 37 37 ESE 5 7 30.01 1016 10 16 0.00 0.00

Powered by AerisWeather